Tracking 19145 objects as of 25-Apr-2018
HD Live streaming from Space Station
objects crossing your sky now

FENGYUN 1C DEB

Track FENGYUN 1C DEB now!
10-day predictions


NORAD ID: 31805
Int'l Code: 1999-025CGT
Perigee: 580.7 km
Apogee: 1,399.4 km
Inclination: 98.4 °
Period: 104.8 minutes
Semi major axis: 7361 km
RCS: 0.0166 m2 (small)
Launch date: May 10, 1999
Source: People's Republic of China (PRC)
Launch site: Taiyaun Space Center, China (TSC)

Note: This is SATELLITE DEBRIS
aabbcc
Your satellite tracking list
Your tracking list is empty




NASA's NSSDC Master Catalog

Two Line Element Set (TLE):
1 31805U 99025CGT 18098.89978266  .00000324  00000-0  12650-3 0  9999
2 31805  98.4118 340.9683 0556102 291.7352  62.5503 13.74659806542361
Source of the keplerian elements: AFSPC